Theta_e
350 350 351 352 351 353 353 355 351 348 346 336 339 342 343 348 347 347 346 346 346 346 345 343 342 343 345 344 343 345 345 345 344 341 341 346 345 338 336 340 342 341 341 339 339 340 341 340 339 341 341 341 339 338 339 340 342 343 342 342 343 343 343 343 344 345 344 343 341 337 334 335 339 342 343 344 344 345 344 344 344 344 344 343 343 343 344 343 343 343 343 343 342 340 339 339 339
351 349 351 351 352 353 354 357 349 337 338 335 340 343 345 349 346 346 347 346 344 343 342 342 343 345 347 345 343 344 345 345 344 344 344 346 345 340 336 340 344 343 342 341 340 340 341 340 339 341 340 340 340 338 338 339 341 343 343 342 342 343 344 343 344 345 343 342 339 335 337 340 343 345 345 345 345 345 344 344 344 344 344 344 344 344 344 343 343 342 343 343 342 341 339 338 338
349 348 350 352 354 355 355 356 346 332 332 334 340 346 348 349 346 347 348 345 343 342 342 344 346 347 347 345 344 344 344 345 344 344 344 345 345 342 340 343 345 344 344 343 343 341 340 339 339 340 340 340 341 339 338 339 341 343 343 342 342 344 344 344 345 344 343 341 337 337 341 344 344 345 345 345 345 345 345 345 344 344 344 344 344 344 344 343 343 342 343 343 342 342 340 338 337
348 349 352 353 355 356 355 353 346 333 330 334 338 347 351 347 347 348 347 345 342 342 344 346 347 348 348 345 344 345 345 345 345 344 344 346 345 342 342 344 344 346 346 345 346 345 341 339 340 341 341 340 341 341 340 341 342 343 343 343 343 344 343 344 345 344 344 341 338 339 343 345 344 345 345 344 344 345 345 345 344 343 343 344 344 343 344 344 343 342 343 343 342 342 341 340 338
351 353 353 354 356 356 355 349 344 336 333 336 339 348 350 347 347 347 347 344 342 343 346 347 344 347 348 346 346 344 344 344 345 345 346 347 346 343 343 345 347 348 347 347 348 347 341 338 340 340 341 340 341 341 341 341 341 343 344 343 343 343 344 344 344 344 344 342 338 339 343 344 344 345 344 344 344 345 345 345 344 343 343 344 344 343 343 343 343 343 343 342 342 342 341 339 337
354 355 354 354 354 353 354 345 339 337 342 344 343 349 348 347 349 346 346 343 343 345 347 347 344 345 346 347 347 344 344 344 345 345 346 347 346 345 345 347 349 349 348 347 346 345 340 337 340 341 341 341 342 341 340 341 340 343 344 343 343 343 344 343 343 344 345 343 339 339 343 344 344 345 345 344 344 345 345 345 344 343 344 344 343 341 342 342 343 343 343 343 343 342 340 339 335
355 356 355 355 353 352 351 342 338 339 347 350 345 349 349 349 350 347 346 344 344 346 347 347 344 344 345 346 346 346 346 345 345 346 346 346 346 346 346 348 349 348 346 344 343 343 339 338 341 343 343 342 343 341 342 343 342 344 344 343 343 344 343 343 343 344 345 344 341 340 342 343 344 345 345 345 344 345 345 344 344 343 343 342 341 341 341 341 342 342 342 343 343 341 340 339 332
354 356 357 356 354 352 348 343 344 343 347 350 348 350 351 351 350 348 345 344 344 347 347 346 345 344 344 346 347 347 347 346 347 346 346 346 346 346 347 347 347 346 345 341 341 343 341 341 343 344 344 343 343 342 343 343 343 344 344 342 343 344 344 344 343 344 344 344 343 343 343 344 344 344 345 345 344 344 344 344 343 343 342 341 340 340 340 340 342 342 343 343 342 340 340 339 332
354 355 356 356 353 350 347 345 346 346 347 349 351 353 352 351 349 349 346 346 345 346 347 346 346 345 345 347 347 346 347 347 346 346 346 346 346 346 346 346 346 346 345 342 343 345 343 343 344 343 344 344 343 342 343 343 342 343 343 342 344 344 344 344 344 344 344 345 346 343 342 343 343 343 344 345 345 344 344 344 342 342 341 340 340 340 340 340 341 342 342 342 341 340 339 337 332
355 354 354 355 353 349 344 343 345 346 348 349 352 354 352 352 350 350 348 347 346 347 347 346 346 345 345 346 346 347 347 346 346 346 347 346 346 345 346 346 346 346 346 346 347 348 345 343 344 344 344 344 344 343 343 343 342 343 343 342 343 344 344 344 344 344 345 345 344 341 341 342 342 343 344 345 344 343 343 343 342 342 341 341 341 340 340 340 341 341 341 341 341 339 336 332 328
354 354 355 352 349 347 342 341 346 347 348 350 352 353 352 352 351 350 350 348 348 348 347 346 346 345 345 346 347 348 347 346 346 346 346 345 345 344 345 346 346 347 348 347 347 348 346 344 345 345 345 344 344 343 342 342 342 343 343 341 342 343 344 343 344 345 343 342 339 339 342 342 342 342 343 344 344 343 343 343 343 342 341 341 341 341 341 340 340 340 340 340 339 336 332 329 327
355 354 355 353 349 347 345 343 346 348 348 348 351 353 351 351 349 349 350 348 347 346 347 347 345 344 343 345 347 347 347 346 346 346 346 345 344 343 345 345 346 348 347 346 346 347 347 346 346 345 344 343 343 343 342 342 342 342 342 341 342 343 343 343 344 343 341 341 340 339 341 341 342 341 342 342 343 344 343 343 344 342 341 341 342 341 341 341 340 341 341 339 336 334 331 329 328
356 353 353 356 355 350 347 346 347 349 348 348 350 352 350 350 349 349 349 348 347 346 347 347 345 343 343 345 347 347 347 347 347 346 345 344 342 343 345 345 345 346 346 345 344 345 345 347 348 346 344 342 342 342 342 342 341 342 342 341 341 342 343 343 343 343 342 342 341 340 340 341 341 341 341 341 343 344 343 343 343 343 343 342 341 341 341 341 340 340 340 338 336 334 333 331 330
356 355 354 355 354 348 347 346 348 347 346 349 351 351 350 350 350 348 348 347 349 348 346 346 344 343 344 345 346 346 347 347 346 345 343 343 343 344 346 346 346 346 345 344 343 343 343 344 346 346 344 341 341 342 342 342 341 341 342 341 341 342 343 343 343 343 343 342 340 340 340 340 341 341 341 341 342 342 342 342 343 343 343 342 341 341 342 342 341 340 339 338 336 335 335 334 333
355 355 355 351 347 345 346 346 347 345 345 350 351 350 351 351 349 348 348 348 349 348 346 345 344 344 342 342 344 346 347 346 344 343 344 345 345 346 347 347 347 346 345 345 344 343 344 344 344 345 344 341 341 342 342 342 341 341 342 342 342 343 344 343 342 343 343 341 341 342 340 339 341 341 341 341 341 341 341 342 342 342 342 342 342 341 341 341 341 342 340 338 336 337 337 336 336
355 354 353 350 345 344 347 348 346 343 346 351 350 350 351 350 349 349 351 349 347 347 346 344 343 344 341 341 343 346 346 344 343 344 346 346 346 346 346 347 347 346 346 346 346 345 345 345 344 344 343 343 343 343 342 343 341 341 342 342 343 343 343 343 342 342 342 341 341 342 341 339 341 341 341 341 341 340 340 342 342 342 342 342 340 337 336 338 341 342 339 337 337 338 338 336 336
354 355 353 348 346 345 347 349 345 343 347 352 351 350 350 350 349 349 350 348 346 347 347 345 344 344 342 344 345 345 344 343 344 346 346 346 346 346 346 347 347 346 347 348 348 347 345 344 344 343 342 343 345 343 342 342 341 342 342 343 343 343 343 344 342 342 342 341 341 341 341 340 340 340 340 340 340 340 341 342 342 342 341 338 335 332 333 337 341 341 338 337 339 339 338 336 335
355 355 350 346 348 350 350 351 349 348 349 352 351 350 350 350 349 349 349 348 347 347 347 347 347 346 345 346 345 344 344 344 346 347 347 346 346 346 346 346 347 347 348 349 348 348 346 345 343 343 342 343 345 343 342 342 341 343 344 344 344 342 342 343 343 342 341 342 342 342 343 344 342 339 337 338 340 340 340 341 341 339 336 332 331 332 336 339 341 340 338 338 339 338 339 340 338
355 354 350 348 351 354 355 356 355 351 349 351 351 350 350 349 349 350 348 348 347 345 346 348 347 347 347 347 345 345 346 347 347 347 346 346 346 346 346 346 346 348 349 349 347 347 347 346 345 344 343 344 345 343 342 342 341 343 344 344 344 342 341 342 343 342 341 341 342 342 344 346 344 339 337 337 338 339 339 339 337 334 330 330 333 336 339 338 338 338 338 338 338 339 342 344 344
354 354 353 352 353 355 357 358 358 354 351 351 351 350 350 349 348 349 348 347 347 345 345 347 347 347 348 348 347 347 347 348 347 346 346 346 346 346 346 346 347 348 348 347 346 346 347 347 347 346 344 345 345 343 342 342 342 343 344 343 342 341 341 341 342 342 341 340 341 342 343 344 344 342 340 339 339 339 338 335 332 328 330 333 336 337 337 336 337 337 337 339 341 343 344 344 345
353 353 353 354 353 353 356 358 359 355 351 351 351 351 350 349 347 348 348 345 346 345 345 346 346 347 348 348 348 347 347 348 347 347 346 346 346 346 346 346 347 347 346 346 346 346 348 347 347 347 344 344 345 344 342 342 342 342 343 342 341 341 341 341 341 341 341 340 341 342 341 344 347 344 343 344 343 341 338 335 330 329 333 335 337 339 340 339 340 340 340 342 343 344 345 345 345
352 353 354 356 353 354 356 358 359 355 351 350 350 350 350 349 348 348 347 344 344 345 344 346 346 347 348 348 347 347 347 347 347 347 347 346 346 346 346 346 347 347 346 347 346 345 346 347 348 347 344 344 345 344 343 343 342 342 342 342 341 341 341 341 341 341 340 340 341 341 341 343 346 344 343 343 342 340 338 335 330 331 335 337 340 343 343 343 343 343 343 343 344 344 344 345 346
351 352 355 357 355 356 358 358 358 355 351 350 350 350 350 349 349 348 346 346 347 345 345 346 347 347 348 348 348 347 347 347 347 347 347 346 346 345 346 346 347 347 347 347 346 345 345 345 347 348 346 344 344 344 344 343 342 343 343 343 344 342 341 341 341 340 340 340 340 340 341 342 342 341 338 337 338 339 336 332 330 335 340 341 343 344 343 344 344 343 343 344 345 345 345 346 346
349 351 355 357 357 357 357 358 357 354 351 351 350 350 350 349 349 348 347 349 348 346 346 347 348 348 348 347 348 347 347 347 347 346 346 346 346 346 346 347 347 347 347 347 346 346 346 344 345 346 345 344 344 344 344 344 343 343 342 343 344 342 342 343 342 341 339 338 339 340 341 343 343 340 338 336 337 336 332 332 336 341 343 343 344 344 344 344 345 344 345 346 346 346 346 346 346
350 352 355 356 356 356 355 355 355 353 352 352 351 351 351 350 350 349 348 348 347 346 347 349 348 348 348 348 347 348 348 347 346 346 346 346 346 345 346 347 347 348 347 346 346 346 346 345 343 343 343 344 344 344 343 344 343 342 341 342 341 341 344 344 341 340 338 338 340 340 341 343 343 342 340 337 334 332 334 340 343 344 344 344 345 345 346 345 346 346 346 347 347 347 347 346 347
353 353 355 356 355 355 354 355 355 354 354 352 350 353 353 350 349 349 350 347 346 347 348 349 349 348 348 347 347 348 349 348 347 346 347 346 346 346 346 346 347 348 347 347 346 345 346 346 345 344 344 344 344 344 344 344 343 342 342 342 342 342 343 342 341 341 340 340 339 340 341 342 344 342 337 333 332 335 341 344 345 345 345 346 346 346 346 346 346 347 347 348 348 348 348 347 348
354 354 354 355 355 354 354 353 352 354 354 352 351 352 351 349 349 348 349 348 346 347 348 349 348 348 348 347 347 348 349 349 347 347 347 347 347 346 346 347 348 348 347 347 346 345 346 347 346 345 344 345 344 343 344 344 343 343 342 342 343 342 340 341 342 343 342 340 338 339 338 339 344 341 336 337 340 342 344 345 346 346 346 346 346 346 346 346 346 346 345 346 348 349 348 348 348
354 354 353 353 355 354 353 350 350 352 353 353 353 352 350 349 348 349 349 348 347 347 348 349 348 347 347 347 347 348 348 349 348 347 347 347 347 347 346 347 348 348 347 347 345 344 346 346 346 346 344 344 345 343 343 344 344 343 343 343 341 337 337 341 343 342 340 338 337 338 337 338 340 339 338 342 345 346 347 346 346 346 346 346 346 345 344 343 345 344 342 343 346 349 348 348 348
354 354 353 352 352 352 351 349 351 353 352 353 354 350 350 350 349 350 349 348 347 347 347 348 348 347 347 347 347 348 348 348 349 348 348 348 347 347 346 347 347 348 348 347 345 345 347 346 345 345 343 343 344 343 343 344 344 343 343 342 338 336 338 341 342 339 337 336 337 337 337 337 337 337 339 342 345 346 346 346 346 346 344 344 343 341 341 342 345 346 344 345 347 349 348 348 348
355 354 352 352 352 353 353 350 352 354 350 353 354 346 347 350 350 350 349 348 348 348 346 346 347 347 346 347 347 348 348 349 349 349 349 349 348 347 346 346 347 348 348 347 347 346 345 345 346 344 341 341 342 342 342 343 342 341 342 339 336 337 339 340 339 336 335 335 336 336 335 336 337 339 339 340 345 347 346 346 347 345 342 343 342 340 343 346 346 347 347 347 348 349 348 348 348
354 354 353 351 351 352 354 351 353 353 349 353 354 347 347 351 351 351 350 349 348 348 347 345 347 347 346 346 348 348 348 348 349 349 349 349 349 348 347 347 347 348 347 347 347 345 344 344 346 343 339 338 339 341 342 342 342 341 339 337 336 337 339 342 341 338 337 336 336 336 336 338 338 340 339 340 345 348 348 348 348 345 341 343 344 340 344 347 346 347 348 348 349 349 348 347 347
351 350 349 348 349 351 354 352 354 353 350 354 353 348 349 352 351 351 351 349 348 348 347 346 346 346 345 346 347 348 348 348 348 349 349 349 349 348 348 347 347 348 347 348 346 345 344 343 345 343 338 337 338 340 341 340 341 340 338 337 335 336 340 344 345 343 342 341 340 337 337 339 339 340 340 341 347 351 350 350 349 344 342 345 344 340 344 346 346 346 345 348 350 348 348 347 347
350 348 344 345 348 350 353 353 354 354 352 353 352 350 351 351 351 351 351 350 350 348 347 346 345 345 345 345 346 346 347 347 348 349 349 350 350 349 348 347 347 348 347 348 346 345 344 342 344 345 341 338 338 340 341 340 339 338 336 337 336 338 343 344 344 345 344 344 344 340 337 338 340 341 342 343 348 352 350 351 350 345 345 346 343 343 346 346 346 345 343 345 347 348 348 347 347
346 346 343 346 349 349 351 352 354 354 352 352 351 352 351 349 350 352 351 351 351 349 348 346 345 345 345 344 345 346 347 347 347 349 349 350 350 350 349 348 347 347 347 348 346 345 345 343 345 345 343 340 336 339 341 340 340 337 336 337 335 340 345 344 344 345 345 346 346 341 338 340 342 343 344 343 346 350 350 351 350 346 346 345 344 347 347 345 346 347 345 343 343 348 350 348 347
342 344 341 344 347 348 351 352 353 353 353 353 351 353 353 348 349 351 351 351 351 349 348 347 346 346 344 344 344 346 347 346 347 348 348 350 350 350 350 349 348 347 348 348 346 346 345 345 344 341 342 341 336 339 341 339 339 337 338 338 335 339 344 344 344 346 346 347 346 342 341 344 344 344 345 343 344 350 351 350 348 345 346 345 346 351 350 347 345 344 346 343 341 345 348 348 348
345 347 343 344 346 349 352 353 353 353 353 355 353 353 354 349 348 350 351 351 351 349 348 347 347 346 344 344 344 346 347 346 347 348 348 349 350 350 351 350 349 348 348 347 345 345 344 343 341 335 339 340 335 337 339 340 340 339 342 341 338 340 343 343 344 346 347 348 347 345 344 345 346 345 345 343 342 348 351 351 349 346 347 347 348 353 351 348 345 344 345 342 342 346 347 348 348
347 348 346 347 347 348 354 354 353 353 353 355 354 354 354 350 348 349 351 351 351 350 349 349 347 346 344 343 344 345 346 346 346 348 348 349 350 350 351 351 350 348 348 346 344 344 343 343 339 334 338 337 334 336 339 342 342 341 344 344 342 343 342 342 345 347 348 349 347 346 348 348 346 345 345 344 342 345 349 350 347 346 348 346 345 348 347 346 345 345 344 342 346 350 350 349 348
347 346 345 346 346 349 352 353 352 352 353 355 354 354 353 350 348 348 350 350 350 350 350 349 347 347 344 342 344 345 346 346 345 347 348 349 350 350 350 351 350 350 348 344 345 345 344 345 342 338 337 334 333 335 337 341 342 342 345 344 344 344 343 344 346 348 348 348 344 345 350 349 346 345 344 345 343 346 350 350 347 346 346 344 342 344 344 345 345 345 346 347 350 351 351 349 347
347 344 345 346 345 348 350 351 352 351 352 354 353 353 353 351 348 348 350 349 349 350 349 349 347 347 345 343 345 345 345 347 346 347 348 348 350 350 350 351 350 350 349 345 345 345 344 346 343 338 337 335 333 332 332 337 339 342 345 345 345 345 345 346 347 347 348 349 345 343 346 346 346 347 346 347 348 349 350 350 350 349 345 343 344 344 344 345 345 346 347 347 351 352 350 349 347
345 342 345 346 346 348 347 350 353 351 351 354 354 354 352 352 350 348 349 350 349 349 349 349 348 347 345 343 344 345 345 346 346 346 347 348 350 350 350 351 350 350 350 348 347 346 344 343 339 336 336 335 334 331 330 333 335 338 341 343 345 345 346 347 346 345 346 348 348 345 343 343 347 351 350 351 352 349 345 348 352 352 346 342 344 343 345 348 347 347 347 344 349 353 352 350 348
342 343 344 345 344 345 347 350 354 352 352 353 353 352 348 349 353 350 348 349 349 350 349 349 349 348 346 343 342 344 345 345 346 345 346 347 349 350 351 351 350 349 350 349 348 347 346 343 338 336 335 335 336 334 332 335 336 337 338 340 342 343 345 346 346 346 346 346 348 348 345 343 345 350 350 351 353 348 343 345 346 350 348 343 347 349 350 351 348 348 348 345 347 351 352 353 350
339 341 339 340 340 343 347 350 352 348 347 350 351 347 344 346 352 351 349 349 350 351 350 349 349 349 347 345 342 343 344 344 345 345 345 346 347 349 351 351 351 350 350 349 348 348 348 346 340 338 336 335 335 336 336 338 338 337 339 340 341 342 345 346 346 347 347 346 348 350 349 346 344 348 349 348 351 348 343 343 342 348 350 345 346 349 350 350 350 352 350 346 348 346 347 352 352
337 339 335 336 339 341 345 348 346 341 343 350 350 346 345 347 351 352 351 350 351 351 351 350 349 349 348 347 345 343 344 344 344 345 345 345 346 348 351 351 350 350 350 349 349 348 349 348 342 338 338 336 334 335 336 337 337 337 339 342 344 344 345 346 346 347 348 348 349 350 350 348 342 346 351 347 346 345 343 343 342 345 350 348 344 345 350 352 353 353 349 346 348 346 345 351 353
335 338 336 338 339 341 344 345 343 342 344 348 350 347 343 342 347 351 351 350 352 350 350 350 349 349 348 347 346 344 343 344 344 345 345 345 347 347 349 349 349 350 350 350 349 348 348 347 342 339 339 338 336 334 333 335 336 337 339 343 346 346 345 346 345 347 348 347 349 349 350 351 343 341 347 345 342 343 343 343 343 343 347 348 344 346 352 353 353 351 347 345 346 346 345 348 351
334 336 337 340 342 342 346 344 341 343 342 341 345 347 341 340 346 351 351 350 352 351 349 349 349 348 348 347 346 344 343 344 344 344 345 345 347 347 348 348 348 349 350 350 350 349 349 345 340 339 338 338 338 336 334 335 337 339 339 343 345 345 346 347 346 348 348 346 346 348 348 350 348 342 341 341 341 344 344 344 345 343 344 346 347 351 354 352 350 347 345 346 346 346 346 345 347
336 337 338 340 342 343 346 345 341 342 340 336 341 344 338 338 346 350 349 349 351 351 349 348 349 349 348 348 346 343 343 344 344 344 344 345 346 347 347 348 347 348 349 350 350 350 350 346 340 339 339 338 338 337 336 336 338 339 341 343 343 343 345 346 348 348 347 344 344 346 345 345 350 349 346 343 340 342 343 344 347 348 348 350 351 352 353 350 347 346 347 348 347 347 346 346 347
337 337 337 339 342 344 346 345 343 341 338 336 339 343 338 337 344 348 349 350 350 350 349 348 349 348 348 349 347 344 343 343 344 343 343 344 345 346 346 347 348 348 349 350 351 350 350 348 342 339 339 339 338 337 337 337 338 339 340 341 340 341 343 345 347 348 346 344 345 349 349 347 349 352 352 349 344 344 344 343 349 353 353 352 349 349 352 353 352 352 353 351 347 346 345 346 348
336 336 338 338 339 341 341 341 341 337 335 337 341 344 341 336 339 346 350 350 347 348 349 349 350 348 347 349 348 345 344 343 344 343 343 343 345 346 347 347 348 349 349 350 351 351 351 350 345 340 340 339 339 338 337 336 337 338 338 339 338 339 343 346 348 349 349 348 348 350 350 348 348 349 350 351 350 350 347 343 347 353 352 350 350 351 353 355 355 355 355 353 351 347 345 346 349
335 337 338 337 336 335 334 335 335 334 335 339 342 344 341 336 340 347 349 348 347 348 349 349 350 350 348 347 348 347 345 344 344 343 343 343 344 346 347 347 349 350 351 351 350 351 351 352 348 343 341 340 339 340 338 337 337 337 337 337 337 338 340 345 349 350 350 350 350 351 349 347 346 345 347 350 350 351 350 345 344 348 348 347 348 350 350 350 352 354 356 355 354 352 350 348 348
333 333 336 337 335 331 332 333 331 333 335 338 342 344 338 335 343 350 349 350 351 351 351 350 350 351 349 348 348 348 346 344 343 343 343 344 346 348 348 348 350 351 351 351 350 351 352 352 349 346 344 342 340 339 339 339 337 336 336 336 337 336 336 339 345 350 352 351 351 350 351 351 349 347 349 350 350 350 352 349 345 345 346 343 343 345 346 347 346 350 354 354 354 355 354 351 350
332 334 336 335 332 329 333 334 333 335 335 337 342 340 334 335 345 351 350 351 353 353 352 350 349 351 350 349 348 348 348 345 344 343 343 344 346 348 348 349 350 350 350 351 350 351 352 352 348 346 346 345 342 340 339 339 338 337 337 336 337 337 337 340 345 349 350 351 352 351 351 352 352 352 351 350 347 346 348 349 345 345 345 343 343 343 346 349 346 347 352 352 351 355 354 352 353
332 335 332 331 332 330 330 331 334 335 334 336 338 335 335 342 348 349 349 351 352 353 353 350 349 349 349 349 349 349 349 346 345 343 343 344 346 349 349 349 349 349 350 350 351 351 350 349 346 345 347 347 345 342 340 338 338 338 337 336 336 336 336 341 345 346 346 349 351 352 352 351 351 353 351 349 347 345 345 345 346 347 346 344 345 343 344 349 348 347 349 349 348 353 355 353 354
332 332 329 332 335 332 328 329 334 335 334 335 334 332 336 342 344 347 348 349 351 353 353 351 349 349 348 349 350 350 350 348 346 344 344 345 347 349 349 348 349 349 350 350 349 348 345 344 345 345 346 347 347 345 342 340 338 337 336 335 337 338 336 340 344 344 346 349 351 351 352 352 352 353 352 351 351 348 346 345 346 350 350 348 347 346 344 345 344 345 348 347 345 348 350 351 353
332 329 330 333 332 331 331 330 333 334 332 332 330 330 333 335 340 347 348 350 351 350 352 353 350 349 349 349 350 351 352 350 348 345 346 347 348 349 348 348 348 349 349 348 345 343 343 341 344 346 346 348 349 348 347 345 342 339 338 336 336 339 340 344 347 347 348 350 351 350 351 353 353 352 353 353 354 353 350 345 344 347 349 347 347 349 349 345 342 345 347 347 346 346 346 349 352
333 331 331 331 327 327 329 330 333 333 330 330 329 328 330 333 340 347 349 350 352 350 351 352 351 350 349 350 350 352 352 351 349 347 347 348 349 349 348 346 348 349 349 348 345 345 345 342 344 349 350 349 351 352 351 350 348 346 345 342 339 340 342 346 348 348 349 350 351 351 351 352 352 352 353 351 351 354 353 350 346 345 348 347 346 347 348 344 342 346 350 351 351 350 347 347 350
333 332 331 330 328 328 329 330 332 331 330 331 328 325 332 340 344 348 350 351 352 352 351 351 352 352 350 349 350 351 352 351 350 347 347 348 350 349 347 345 346 349 348 348 349 348 348 347 346 349 352 352 352 353 353 352 351 351 351 349 346 343 341 344 346 348 349 349 350 351 352 352 351 352 353 351 350 352 354 354 352 350 352 352 352 351 352 350 347 347 350 353 355 354 349 346 348
330 329 328 329 328 327 329 329 328 327 328 329 325 325 336 346 347 349 352 351 351 352 352 352 353 353 351 348 350 352 351 348 348 348 346 348 350 349 349 347 347 349 347 347 350 348 348 350 348 347 351 353 353 353 353 353 353 353 353 352 351 348 345 345 346 347 348 349 349 350 351 352 352 352 353 352 351 351 352 352 353 353 353 354 355 353 353 355 353 349 348 349 351 350 346 346 348
330 330 328 329 328 325 325 325 326 325 325 326 323 325 338 347 346 348 350 350 352 353 353 353 353 352 351 350 349 351 352 349 347 347 347 348 350 349 349 349 349 349 346 347 348 345 344 346 345 344 347 350 352 353 353 353 353 353 353 353 353 352 350 349 348 348 348 347 348 349 350 351 352 352 352 352 352 352 352 351 352 353 353 354 354 352 352 355 355 352 350 350 352 350 345 346 347
Wind_Speed
4 3 3 2 2 2 3 5 3 4 2 4 5 5 6 7 9 10 11 9 8 6 7 12 13 7 2 3 5 6 8 6 4 3 5 9 16 18 15 14 13 14 12 12 12 12 11 10 11 11 10 11 11 9 8 7 9 11 11 11 11 10 10 11 11 11 11 11 11 11 14 16 17 17 17 17 17 17 17 17 17 17 17 17 17 17 17 16 16 16 16 15 15 15 15 16 16
2 2 2 2 1 2 1 3 1 3 3 6 6 6 8 7 9 11 10 7 8 10 13 14 10 5 2 3 5 7 10 11 9 11 12 15 17 16 16 15 14 14 13 13 13 13 12 10 11 11 10 11 11 10 9 8 7 9 10 11 11 10 10 11 11 12 12 12 12 14 16 17 17 16 16 17 17 17 16 17 17 16 16 17 17 17 16 15 15 15 15 15 15 15 15 15 15
1 2 2 2 2 3 1 2 2 3 5 5 7 7 6 8 10 10 9 9 13 16 14 12 8 5 3 5 6 6 8 11 13 16 16 16 15 15 16 15 15 14 13 13 12 12 12 12 11 11 11 11 11 11 11 10 8 8 9 9 9 10 10 11 11 12 13 13 13 15 17 15 14 14 15 16 16 16 16 16 16 16 16 17 17 16 15 14 14 15 15 14 14 14 14 15 15
2 1 0 2 3 3 3 3 2 1 5 5 7 6 7 10 11 10 10 12 16 16 13 10 8 4 4 7 6 7 10 11 12 15 16 12 12 17 17 16 15 13 12 12 12 11 11 12 11 10 10 10 11 12 12 11 10 9 9 9 9 9 10 10 11 12 13 13 13 15 15 13 13 14 16 16 16 16 16 16 16 16 16 17 17 15 15 14 13 14 14 14 14 14 14 14 14
2 0 0 1 2 2 3 2 1 1 5 5 7 7 9 12 12 11 11 14 15 14 11 7 7 7 8 10 7 7 10 11 11 12 14 12 14 18 17 16 13 12 11 11 11 9 10 11 10 9 9 9 9 10 11 11 10 10 9 9 9 10 11 11 11 12 12 14 14 15 14 13 13 14 16 16 15 15 15 15 15 16 16 16 16 15 14 13 13 13 14 14 13 14 14 14 13
2 1 1 2 0 1 3 2 2 4 5 4 7 8 10 12 12 14 13 14 13 11 8 4 8 10 10 11 11 11 8 10 11 11 12 14 16 16 16 14 12 11 11 11 10 8 9 10 9 8 8 8 8 8 9 9 9 10 10 9 9 10 12 12 12 12 12 14 14 15 14 13 13 14 15 15 15 14 14 14 14 15 15 15 15 14 14 13 12 12 14 14 14 14 14 13 12
2 1 2 2 1 2 3 2 3 6 5 4 8 9 10 13 13 15 14 13 11 9 6 6 10 10 8 7 10 11 7 9 11 11 13 16 16 16 14 13 12 11 11 11 10 8 9 10 9 8 8 8 7 7 9 8 9 10 10 9 10 11 12 12 12 12 12 14 15 15 14 13 13 13 14 15 15 14 14 14 14 14 14 14 14 14 13 13 12 13 14 15 15 14 13 13 12
2 3 3 2 1 2 2 3 4 5 6 6 9 10 11 13 13 13 12 10 10 9 7 8 8 8 7 6 9 9 8 9 12 14 15 17 16 15 13 11 12 11 10 11 9 8 9 9 9 9 8 7 6 7 8 7 7 8 9 9 10 11 12 12 13 12 13 14 15 15 13 13 13 12 13 14 15 14 14 14 14 14 13 14 13 13 13 12 13 13 14 15 15 14 13 12 12
2 3 2 2 2 2 2 4 5 5 8 8 9 11 12 12 12 11 9 8 9 9 8 7 4 6 10 11 12 9 9 10 13 16 16 16 15 13 12 11 11 11 11 10 8 7 8 9 9 8 7 6 6 6 7 6 6 7 8 9 9 10 12 12 13 13 13 13 14 14 13 13 13 12 13 14 14 14 14 13 13 13 13 13 13 13 12 12 13 13 14 15 15 14 13 11 11
4 4 2 2 3 3 3 5 5 6 8 8 9 11 11 10 10 9 7 8 9 9 8 6 6 9 12 13 13 9 9 11 14 16 15 15 14 12 11 11 11 11 10 8 8 7 7 7 7 7 6 6 6 7 7 7 7 7 8 9 9 10 12 12 12 13 12 13 13 13 13 12 12 12 13 14 14 14 13 13 13 13 13 13 13 12 12 12 13 13 14 15 16 14 12 11 12
4 4 2 2 4 3 3 5 6 7 8 8 9 10 8 8 8 8 8 8 9 9 9 7 10 14 13 13 11 9 10 11 13 14 14 14 13 11 10 11 11 10 8 7 7 7 6 6 5 6 6 6 7 7 7 7 8 8 8 9 10 10 11 11 11 12 12 12 12 13 14 13 12 11 12 13 14 14 14 13 13 13 13 13 12 12 12 13 13 14 14 15 16 15 13 13 13
4 4 2 1 3 3 4 6 7 8 8 8 8 7 6 7 7 7 8 8 9 10 9 6 9 12 11 12 10 10 11 11 12 13 13 12 11 10 10 10 10 9 8 7 6 6 6 5 5 5 6 6 6 6 6 7 9 9 9 9 10 10 11 12 11 12 12 12 13 13 13 13 13 12 12 13 14 14 14 13 13 13 13 12 12 11 12 13 13 14 15 16 17 15 14 14 13
4 0 2 1 1 3 5 6 7 8 7 7 8 7 6 7 6 6 7 8 9 8 8 7 10 10 9 12 12 11 11 11 12 12 13 11 10 10 9 9 9 8 7 6 5 5 5 5 6 5 4 4 5 6 6 8 9 10 10 10 10 10 11 12 11 12 13 12 13 13 12 12 13 12 12 13 13 13 14 14 13 12 12 12 11 11 12 12 12 13 14 17 16 14 14 14 13
4 3 3 2 2 4 6 6 7 6 6 7 9 8 6 5 5 6 8 9 7 7 9 9 10 9 11 12 11 12 12 12 12 12 12 11 10 10 10 9 8 7 6 5 5 4 4 5 5 5 4 4 5 7 7 8 9 10 10 11 11 10 11 12 12 12 13 12 12 12 12 11 12 13 12 12 12 13 14 14 13 13 12 11 11 11 11 12 12 12 14 16 15 13 13 13 13
3 3 3 2 4 5 5 5 8 6 6 9 9 9 8 6 5 6 7 7 8 9 9 8 7 6 11 11 11 14 14 14 13 12 12 11 10 9 10 9 8 7 6 6 4 4 5 5 5 4 3 3 5 7 8 8 10 10 10 11 12 11 11 13 14 13 14 13 13 13 12 13 13 14 13 12 12 13 13 13 13 13 12 11 10 10 11 11 11 12 15 15 14 14 14 13 13
4 4 3 3 5 5 4 5 8 6 6 9 10 10 9 7 5 5 4 5 10 9 6 7 4 3 9 11 14 17 16 15 14 12 12 11 10 9 9 9 8 8 7 7 6 5 5 5 5 4 3 3 4 6 8 9 10 11 11 12 12 13 12 13 14 14 14 14 14 14 13 14 15 15 14 13 13 13 12 11 12 13 11 10 10 10 10 11 11 13 15 15 14 14 14 14 13
3 4 4 3 4 4 5 6 6 7 8 10 12 11 9 8 5 5 5 7 11 9 7 8 5 5 11 14 18 20 18 16 14 13 11 10 10 9 9 8 8 8 8 7 7 7 6 5 4 4 3 3 5 6 8 10 11 12 12 12 13 14 13 14 14 15 15 14 14 14 14 15 15 15 15 14 14 12 12 11 11 12 10 9 10 10 11 12 13 14 15 14 13 13 14 14 14
4 4 3 3 4 3 4 4 3 8 10 10 12 11 9 10 8 7 7 8 10 10 10 11 11 12 16 19 21 20 18 16 14 12 10 9 8 8 8 8 7 8 9 8 7 7 7 6 4 4 3 5 7 7 9 10 12 13 12 12 13 14 14 14 15 15 14 14 14 15 16 15 15 16 15 15 14 12 12 11 11 11 10 10 11 12 13 14 14 14 14 13 13 12 13 13 12
3 2 2 2 5 5 4 3 3 5 11 11 12 11 9 10 11 9 7 9 10 10 12 13 16 17 19 21 20 19 17 15 13 11 9 8 7 7 7 7 7 8 9 9 8 8 8 8 6 5 5 6 8 8 10 11 12 13 12 12 13 14 14 14 15 15 14 14 15 15 15 15 16 18 17 15 13 12 11 11 11 11 10 11 13 13 14 14 14 14 14 13 13 13 12 10 9
2 2 2 4 5 6 5 4 3 3 12 13 11 10 9 9 10 8 6 9 9 8 12 13 16 19 20 20 19 18 16 14 12 10 9 7 7 6 6 7 7 8 8 9 8 8 9 8 7 6 6 7 8 9 11 12 12 13 13 13 13 13 14 14 15 14 14 15 15 14 14 13 14 18 19 16 13 12 11 11 12 12 12 13 14 14 13 13 14 13 13 12 12 10 9 8 8
3 3 3 6 2 5 6 4 3 4 12 13 11 10 10 10 8 7 7 7 6 7 11 11 16 21 21 20 18 17 15 13 11 9 8 7 7 6 6 6 7 8 8 9 9 10 9 9 8 6 6 8 9 10 12 13 13 13 13 13 14 14 14 15 15 15 15 15 15 14 13 13 12 14 17 14 12 12 12 12 12 13 14 13 13 12 11 11 11 10 10 10 9 7 7 6 7
3 2 5 5 1 4 5 4 3 6 10 12 12 10 10 10 7 7 5 3 4 8 11 10 15 21 20 20 18 16 15 13 11 9 8 7 7 6 6 7 7 8 8 9 9 10 10 10 10 7 7 9 10 11 13 14 14 15 15 15 15 15 16 16 16 16 16 16 15 14 13 12 12 12 13 12 12 12 12 13 13 15 14 12 11 10 10 10 9 8 8 8 7 6 7 7 7
3 3 5 4 3 3 4 4 2 7 11 12 12 9 11 10 7 8 4 6 5 8 11 12 16 19 19 19 17 15 14 12 11 9 8 8 7 7 7 7 8 8 8 9 9 10 11 11 11 9 8 10 12 13 14 15 15 16 16 16 16 16 17 17 17 17 17 16 15 14 13 11 11 11 12 12 13 13 14 14 15 13 11 11 10 8 8 9 8 8 8 8 8 7 6 7 7
4 1 3 3 3 3 4 3 2 6 10 11 10 9 11 10 8 8 5 7 8 10 12 14 17 18 18 17 16 15 14 12 10 9 8 7 7 7 7 8 8 8 9 9 9 10 11 12 12 12 11 12 12 13 14 15 16 16 17 17 16 17 18 17 17 17 16 16 15 14 13 11 11 11 12 12 13 14 15 14 13 11 9 10 10 8 8 9 8 8 9 8 8 8 7 7 7
3 2 2 1 2 4 5 4 3 6 8 9 9 9 9 8 9 8 7 9 11 12 13 16 17 17 16 16 16 14 13 11 10 9 8 7 7 8 7 8 8 8 8 9 10 11 11 12 13 13 13 13 12 12 14 15 16 17 17 18 18 19 18 17 17 16 15 14 14 13 12 12 11 11 12 13 14 14 14 12 10 10 9 9 8 7 8 9 8 8 9 8 8 8 7 7 8
2 2 2 2 3 5 8 7 5 5 7 8 10 9 8 8 9 8 8 9 12 13 14 16 18 17 15 15 15 14 12 11 10 9 8 8 8 8 8 8 8 8 9 9 9 11 12 12 13 13 14 13 13 13 14 15 15 16 16 17 17 17 17 17 16 15 14 13 13 13 12 13 11 11 14 14 14 13 11 10 9 9 8 8 8 7 8 8 8 8 8 7 7 8 7 7 8
1 1 2 2 1 5 9 11 6 5 6 7 9 8 9 9 6 5 9 10 13 14 14 16 17 16 15 14 14 12 12 11 10 9 8 8 8 8 8 8 8 8 9 9 10 11 12 12 12 13 13 13 13 14 14 15 15 15 15 15 14 15 16 16 15 14 13 13 13 13 14 15 13 12 14 13 11 10 9 8 8 8 7 7 7 7 7 7 8 7 7 7 7 8 7 7 8
0 3 3 3 3 2 10 14 7 5 5 4 7 8 9 8 4 5 12 12 13 14 14 16 16 15 14 13 13 11 11 10 9 9 8 8 8 8 8 8 9 9 9 9 10 12 12 13 14 13 13 14 13 13 14 14 14 14 14 13 14 16 16 15 14 14 14 13 14 15 14 14 14 13 12 12 10 9 9 8 7 7 7 7 7 7 6 7 8 7 7 8 8 8 7 7 7
2 4 2 5 6 3 12 15 6 3 4 3 7 8 8 8 5 8 14 13 13 13 13 16 16 14 13 13 12 11 10 10 9 8 8 8 8 8 9 9 9 9 10 9 10 12 12 13 14 14 14 14 14 14 14 13 13 13 13 13 15 16 16 15 14 14 14 14 14 15 14 13 14 13 11 11 10 8 8 8 7 7 7 7 6 7 7 6 7 6 6 7 7 7 6 6 7
4 4 3 5 6 3 11 14 6 4 4 3 4 6 7 7 6 10 13 14 15 13 13 15 15 14 14 13 12 11 10 10 9 8 8 8 8 9 9 9 9 9 10 10 11 12 12 13 13 14 15 15 15 15 14 13 13 13 13 14 15 15 15 14 14 14 15 14 14 14 14 13 13 12 11 11 10 7 7 7 6 6 6 6 5 6 6 4 5 5 5 5 5 6 5 6 7
3 1 3 4 4 2 8 11 9 8 5 2 3 3 6 7 8 12 13 14 15 14 14 14 14 14 14 13 12 11 11 10 9 9 9 8 8 9 10 10 10 9 10 11 12 12 12 13 12 14 17 16 15 15 14 14 13 13 14 15 15 15 14 13 12 13 14 15 14 14 13 12 12 11 10 10 9 6 5 5 5 5 6 6 4 5 5 4 4 4 4 5 4 5 5 5 6
3 2 3 3 4 2 6 9 9 8 6 4 4 2 5 7 10 12 13 14 13 13 13 14 14 14 14 14 12 11 12 11 10 10 9 9 8 9 10 11 10 10 11 11 12 12 12 13 13 14 16 17 16 14 13 14 14 14 15 15 15 15 14 12 11 11 12 13 12 12 12 12 10 10 9 9 7 5 4 4 4 4 5 5 4 4 4 4 4 4 4 5 4 5 5 5 5
4 2 2 2 5 4 5 7 5 5 7 6 4 2 3 5 10 12 12 13 13 12 13 13 14 14 14 13 12 12 12 12 11 10 10 9 9 9 10 11 11 10 11 11 12 12 12 12 13 13 14 16 16 14 13 14 13 14 15 15 15 15 13 12 13 11 11 11 10 10 11 10 9 9 8 8 7 4 4 4 3 3 5 4 4 4 3 4 4 3 4 5 4 5 5 4 4
1 2 1 1 4 7 7 6 5 5 6 6 3 1 1 3 9 13 12 14 13 12 13 13 13 13 13 13 13 12 13 12 12 11 11 10 9 9 10 11 11 11 11 11 12 12 12 13 13 13 13 15 16 15 13 13 13 14 15 15 16 15 12 11 12 12 11 10 9 10 11 9 9 8 7 7 6 4 4 4 3 3 4 4 4 4 3 3 4 3 3 4 4 4 3 3 3
3 2 1 2 3 6 7 7 8 8 6 6 5 2 1 3 8 12 12 14 14 12 12 13 13 13 13 13 13 13 13 13 12 12 12 10 9 10 10 11 12 11 12 12 12 13 13 13 14 14 14 15 17 16 14 14 14 15 15 15 16 16 13 12 12 11 10 9 8 9 10 9 8 7 6 6 6 5 4 3 3 3 4 4 4 4 3 3 3 3 3 3 4 3 3 3 3
3 2 2 1 4 4 5 7 8 9 6 5 6 3 2 4 7 10 12 14 13 11 11 12 12 12 13 13 13 13 13 13 13 12 12 11 10 10 10 11 12 12 12 12 13 13 13 14 14 14 14 15 17 17 15 14 14 15 14 14 15 14 14 13 12 10 9 8 8 8 8 8 7 7 6 5 6 5 4 3 3 4 3 4 4 4 3 3 4 4 3 4 4 4 3 2 2
1 1 1 3 5 3 4 7 7 8 5 4 5 4 4 4 5 9 12 13 12 12 12 13 13 13 13 14 13 14 14 13 13 13 13 12 10 10 10 11 12 12 13 13 13 13 13 13 13 14 14 15 16 17 16 15 14 15 14 13 13 12 13 13 11 9 8 7 8 8 7 6 6 6 6 5 6 6 5 3 4 4 4 4 5 4 4 4 5 5 4 4 5 4 3 2 1
2 1 2 2 5 5 5 7 7 6 4 3 4 4 6 6 5 8 11 12 13 14 14 14 15 14 13 13 14 15 14 13 14 14 13 12 11 11 10 10 12 13 13 13 13 13 13 13 13 14 15 15 15 16 17 16 15 14 12 11 11 11 12 11 9 8 7 6 8 9 7 6 6 5 5 6 6 5 4 3 3 4 4 4 4 5 5 5 5 5 5 5 5 4 3 2 1
4 2 2 1 3 5 5 8 9 6 2 3 5 5 5 6 6 8 11 12 13 14 14 13 15 14 13 13 14 16 15 13 13 15 14 13 13 12 11 10 11 13 13 14 13 14 14 14 14 14 14 16 16 16 17 17 16 14 12 11 10 9 9 9 8 8 8 6 6 7 7 7 6 5 5 5 4 4 4 4 3 2 4 5 5 5 5 5 5 5 5 6 6 4 3 2 2
4 2 1 2 3 3 4 6 9 6 3 4 6 4 4 6 6 7 10 12 12 13 14 12 13 14 13 14 15 16 16 14 14 15 15 14 14 13 12 11 12 12 13 14 14 14 15 14 14 15 15 16 16 16 17 16 16 15 13 12 11 10 9 9 9 9 8 7 6 6 6 6 6 5 5 5 3 3 4 4 3 3 4 5 4 4 4 4 4 5 4 6 7 5 3 2 2
3 2 1 2 3 2 4 4 6 5 4 6 6 2 4 7 8 7 9 11 12 13 15 14 14 15 14 14 15 16 16 16 15 15 15 15 15 14 13 13 13 13 13 14 15 15 15 14 14 14 15 16 16 16 17 16 15 14 12 12 12 12 11 10 9 8 8 7 6 6 5 5 6 6 6 6 4 3 4 4 3 3 2 4 4 2 3 2 3 3 3 5 5 5 3 2 2
2 1 5 5 5 2 6 7 6 4 4 7 8 3 4 7 9 9 8 10 12 13 16 16 16 16 15 15 16 17 16 16 15 14 15 15 15 14 14 14 14 14 13 13 14 14 14 14 14 14 14 16 16 16 16 16 16 15 13 12 12 11 11 10 9 8 7 7 6 6 6 5 6 6 5 5 4 3 4 3 3 3 1 2 2 2 2 2 2 2 1 3 3 4 4 2 2
1 3 10 9 7 3 5 8 7 3 2 6 7 5 2 3 8 10 10 11 13 13 15 17 18 17 17 17 17 17 17 17 16 15 15 15 15 15 14 15 15 14 13 13 14 15 14 15 15 14 14 15 16 17 16 16 16 15 14 12 11 11 10 10 10 8 7 7 6 6 5 5 6 6 5 5 5 4 4 3 3 3 2 1 1 2 3 2 1 0 1 2 2 2 2 2 1
2 2 11 10 7 3 4 7 5 1 2 3 6 6 3 2 6 11 13 12 12 13 13 15 18 19 19 19 19 19 19 18 17 16 16 16 15 15 15 15 15 15 14 13 14 15 16 16 15 15 15 15 16 16 16 16 16 15 14 12 11 10 9 9 10 9 7 7 7 6 5 4 6 7 7 6 6 4 4 4 3 3 3 2 2 2 2 2 2 2 2 2 2 2 2 1 1
3 2 7 9 8 3 3 5 4 1 2 3 5 6 5 2 5 10 13 12 12 14 14 15 19 21 20 21 21 20 20 19 18 18 17 17 16 16 15 15 15 15 14 14 14 14 16 17 16 16 15 15 15 15 16 16 16 15 14 13 13 12 10 8 8 7 7 7 7 6 6 5 5 6 7 7 6 5 5 5 4 4 3 3 2 2 2 3 3 3 3 3 2 2 3 2 2
7 6 1 5 6 1 2 5 3 2 4 4 7 9 5 2 6 7 9 10 11 12 12 14 19 22 21 21 21 21 21 20 19 19 18 17 17 17 15 15 15 15 14 14 14 14 16 17 17 17 16 16 15 15 15 16 16 15 15 15 15 14 12 10 9 8 8 8 7 6 7 6 5 5 5 6 7 6 6 5 4 3 3 3 4 4 4 4 3 3 3 3 3 3 3 4 4
10 6 2 5 4 1 2 3 2 4 5 3 8 9 6 1 4 5 6 6 7 8 9 12 17 21 22 22 22 22 22 21 21 20 19 18 18 17 16 15 15 15 15 14 14 14 15 16 17 17 17 17 16 15 15 15 15 15 15 15 16 15 13 11 10 9 8 8 8 6 6 6 6 5 5 5 6 6 6 6 5 4 4 5 5 5 4 3 3 2 3 4 4 3 4 5 5
8 4 1 3 3 3 3 3 3 6 4 3 6 8 6 3 2 5 5 4 4 5 7 11 16 21 24 24 23 23 23 22 21 20 20 19 19 17 17 16 16 16 16 16 16 15 15 16 17 17 18 18 17 16 16 15 16 16 15 15 16 16 14 12 10 9 9 9 8 7 7 7 7 7 7 6 6 6 6 6 6 6 6 5 5 4 5 5 4 4 4 4 4 4 4 5 5
6 5 4 1 4 5 5 5 5 4 2 3 4 6 4 2 2 4 3 1 0 2 4 8 14 20 25 26 25 24 23 23 22 21 21 20 19 18 18 18 17 18 18 18 17 16 16 17 18 17 18 19 19 18 17 16 16 16 15 15 15 16 16 14 12 10 10 9 9 8 8 7 7 7 7 6 6 6 7 7 6 6 6 6 6 6 6 6 6 5 4 4 4 5 5 5 5
7 7 6 2 5 4 4 5 4 3 4 5 5 5 3 2 4 5 3 3 3 3 3 7 11 16 21 25 26 25 24 24 22 22 21 20 19 19 19 19 19 20 20 19 18 18 17 18 19 18 18 18 19 19 18 18 17 16 15 15 15 15 16 15 13 11 10 9 9 9 8 7 7 6 7 7 7 7 7 7 7 7 7 7 7 7 7 7 6 6 5 5 5 6 6 6 6
8 8 7 6 6 2 2 3 2 2 4 8 6 4 2 2 5 5 4 4 5 5 4 4 8 13 15 19 24 25 26 25 23 22 21 20 20 20 20 20 21 21 20 20 19 20 20 19 19 19 19 18 18 19 19 19 18 17 16 15 15 15 15 15 14 13 12 11 9 9 8 8 7 7 8 8 8 8 8 9 9 8 8 8 7 7 7 6 7 7 7 7 6 6 7 7 6
7 8 8 8 7 4 4 4 3 5 4 5 6 4 2 4 5 5 3 4 6 7 7 4 4 10 11 14 19 22 25 25 24 23 22 21 21 21 21 21 21 21 21 20 20 21 22 21 20 19 19 19 19 19 19 19 19 18 17 16 16 16 16 16 16 16 15 13 10 9 9 9 8 8 8 8 8 9 9 9 9 8 9 8 8 8 8 7 8 8 8 9 8 7 8 8 7
6 7 8 7 4 6 6 5 2 5 7 4 6 5 4 5 5 3 2 3 6 8 8 7 3 8 10 12 15 18 21 23 24 23 22 22 22 22 21 21 21 21 21 21 22 22 22 21 20 20 20 20 20 19 19 19 19 19 19 18 17 17 17 17 16 16 15 13 12 11 10 10 10 9 9 8 8 9 10 10 9 9 9 9 9 9 9 9 10 9 9 10 9 9 10 10 8
5 7 8 7 3 6 5 5 3 3 6 4 4 5 5 5 3 1 3 5 8 9 9 7 4 7 11 12 13 15 17 19 21 21 21 22 22 22 22 22 21 20 21 22 22 22 21 20 20 20 20 21 21 20 19 19 19 19 19 19 18 18 18 17 16 15 14 14 13 13 11 11 11 10 10 10 9 10 10 11 11 11 11 11 10 10 10 11 11 10 10 11 10 10 11 10 9
6 3 6 7 5 6 6 4 4 4 5 3 4 5 4 2 2 2 4 8 9 10 8 6 5 5 9 11 12 13 14 15 17 18 19 20 22 22 23 23 21 20 21 21 21 22 21 21 21 20 20 21 20 19 19 19 19 19 19 19 19 19 18 17 17 16 16 15 15 14 12 12 12 11 11 12 11 10 10 11 12 11 11 11 11 11 12 12 11 11 10 10 10 11 11 10 10
6 2 7 7 4 4 4 3 3 4 5 4 4 5 2 4 4 5 6 7 8 8 8 6 5 3 6 9 11 12 13 14 16 17 17 18 20 22 24 25 22 21 21 21 20 21 21 21 21 21 20 19 20 19 19 20 19 19 19 19 20 20 19 19 18 18 17 16 16 15 14 13 13 12 12 12 12 11 11 11 11 11 11 11 11 11 11 12 12 12 11 10 10 12 12 11 11
7 5 8 7 4 3 3 5 5 5 4 4 5 4 3 4 4 5 6 6 7 8 7 5 5 4 4 6 8 11 12 14 17 19 19 17 19 20 21 22 21 21 22 21 20 21 21 21 21 21 20 19 19 19 19 19 19 19 19 19 19 20 20 19 19 19 19 18 17 16 15 14 14 14 13 13 12 12 12 12 11 11 11 11 12 13 12 11 12 13 13 12 12 13 13 11 11
8 7 7 7 6 5 5 7 7 6 6 5 5 3 3 4 3 4 5 5 6 7 7 6 6 6 5 5 5 8 10 11 15 19 20 17 16 18 18 19 20 21 23 23 22 22 22 21 21 22 22 21 19 18 19 19 19 19 19 19 19 19 19 19 19 19 19 19 18 17 17 16 15 15 15 14 14 13 13 13 12 12 12 12 13 14 13 12 12 13 13 12 12 13 13 12 13
Wind_Direction
102 80 52 85 155 240 228 257 236 188 209 103 97 110 87 82 109 114 117 122 118 116 121 125 132 131 91 44 70 74 54 46 39 54 103 118 142 152 153 147 151 154 158 157 149 141 136 138 139 137 133 124 119 125 138 142 131 127 129 127 124 122 121 121 127 121 108 99 91 94 104 109 112 116 118 119 118 116 117 115 113 109 108 108 104 101 98 97 95 94 91 90 91 89 86 84 85
105 52 21 31 166 234 226 264 250 147 142 107 89 93 107 122 121 112 116 123 116 126 130 125 126 108 53 51 75 98 66 42 62 89 107 127 137 149 154 148 150 155 158 157 152 147 144 144 144 139 133 124 122 132 147 150 133 128 129 128 127 128 130 129 128 120 110 99 95 104 111 113 115 117 118 118 118 118 118 115 114 111 110 108 105 101 99 97 96 94 93 92 92 89 86 85 85
213 349 2 332 234 245 262 240 246 141 122 106 97 99 121 124 109 102 105 111 120 131 131 125 120 97 111 112 74 76 73 66 91 107 121 133 136 146 152 148 149 151 151 149 146 147 146 146 147 141 134 130 133 141 147 146 140 134 126 125 130 129 134 132 127 121 110 101 103 114 118 118 117 118 117 116 117 118 117 115 115 113 111 108 104 103 101 99 98 96 94 93 91 88 85 84 84
194 284 75 288 239 230 246 213 245 129 114 111 108 103 109 109 105 104 107 116 129 134 132 130 115 79 74 83 63 70 84 90 101 115 127 136 144 148 149 148 146 141 143 140 138 145 147 147 147 139 136 138 141 143 143 144 141 135 126 125 132 133 134 133 129 123 113 104 110 122 123 117 115 119 118 116 116 116 116 114 115 112 110 107 105 104 103 101 98 96 94 93 92 89 84 83 83
135 206 124 304 245 230 272 239 257 75 90 103 116 104 102 107 111 115 116 126 138 137 134 130 111 106 77 56 44 79 95 105 111 117 124 132 142 146 146 142 137 136 138 135 137 144 148 150 145 139 141 142 142 142 144 144 140 137 131 128 134 138 139 141 138 129 118 110 116 128 124 115 115 121 121 119 117 115 115 113 112 111 108 105 104 104 102 100 97 95 93 92 92 90 86 84 83
105 359 83 99 304 289 263 210 135 96 65 68 115 110 108 113 119 123 126 134 141 137 130 107 113 121 93 66 59 71 97 116 120 119 123 132 138 143 141 137 134 136 136 134 137 142 151 154 146 145 147 145 150 149 148 146 144 143 135 136 143 145 148 148 144 135 125 119 123 131 126 117 117 123 123 119 117 115 113 111 110 109 107 104 104 105 103 99 95 92 92 91 90 88 88 87 83
173 193 154 143 115 281 252 145 104 105 75 53 110 116 114 119 126 131 133 138 143 140 134 104 115 116 97 95 75 65 81 111 123 125 130 137 139 139 137 136 136 136 138 139 142 147 157 157 149 153 152 149 157 151 147 148 148 147 140 148 154 152 154 151 149 143 134 129 128 132 131 122 119 122 123 120 117 115 112 109 109 108 106 105 104 104 100 96 91 88 90 93 92 89 89 87 82
200 196 194 220 166 223 247 113 89 91 93 76 97 110 118 127 132 138 139 140 147 143 137 121 116 103 94 106 86 73 83 105 125 126 131 136 135 135 133 132 133 134 141 145 149 155 160 160 158 159 157 152 156 146 143 146 145 146 145 154 158 153 154 153 151 147 141 137 131 133 132 119 114 118 122 121 117 114 111 110 110 109 107 106 102 98 95 95 93 91 94 94 92 90 87 84 80
242 218 197 215 169 171 178 121 106 89 105 103 95 106 120 133 138 142 141 136 144 139 132 130 115 101 105 101 95 94 94 107 124 126 129 132 133 134 130 131 134 137 143 148 150 151 156 163 162 158 157 148 147 143 140 148 150 151 155 161 162 157 156 156 154 151 146 132 124 129 125 114 114 120 123 121 117 114 110 111 111 109 108 104 98 96 97 97 96 95 94 92 91 89 84 81 79
233 209 223 210 163 146 151 127 118 104 108 107 103 115 126 138 142 143 140 132 138 134 124 116 105 113 114 104 101 105 111 121 126 126 130 132 133 131 130 134 137 141 144 146 142 141 150 158 154 148 150 145 144 150 155 160 162 161 164 169 168 163 156 157 155 150 138 117 114 125 125 120 120 123 123 119 117 115 111 110 109 107 105 101 98 97 98 96 96 95 91 93 91 84 79 80 80
239 181 248 223 144 133 148 126 122 116 113 110 108 117 129 139 142 141 137 132 133 131 128 119 110 116 114 103 101 110 124 131 130 130 134 133 131 130 133 134 135 139 140 141 139 135 136 145 146 141 138 141 149 156 161 158 166 166 166 174 171 166 156 156 156 142 132 123 124 129 128 123 119 122 123 120 118 117 115 113 110 107 104 101 99 100 99 97 96 93 93 95 87 80 80 80 81
267 155 201 230 113 125 138 129 124 119 124 129 119 117 131 139 138 136 136 135 138 138 133 125 123 126 118 107 108 124 133 136 137 136 134 131 131 133 133 133 135 137 137 137 138 130 125 126 126 123 125 138 145 143 151 157 167 164 161 172 170 167 154 155 156 137 135 136 132 133 130 126 123 124 122 121 120 118 117 114 111 108 108 105 101 100 97 96 93 93 96 93 84 83 83 80 81
302 166 224 134 84 150 133 131 126 124 134 129 119 122 135 137 127 124 134 136 138 136 124 128 138 132 113 112 121 136 142 143 143 138 134 132 134 135 133 136 138 137 138 134 135 132 127 121 110 104 117 141 141 130 148 163 164 159 159 165 166 165 149 147 148 134 134 136 135 134 131 129 126 124 123 122 120 118 116 114 111 106 106 104 101 97 95 94 91 94 96 88 84 88 87 83 81
322 311 283 116 166 163 133 137 134 140 135 116 116 126 129 120 114 118 132 131 116 109 109 125 143 131 118 122 135 148 150 149 146 139 136 135 137 137 135 137 136 135 134 130 132 128 124 121 115 115 125 149 146 135 150 161 156 157 160 159 161 160 146 142 138 132 133 136 137 133 133 135 126 122 122 120 120 119 117 116 112 106 105 104 99 96 95 93 91 97 95 89 92 94 90 86 81
324 300 282 140 159 152 142 145 140 146 130 123 128 132 120 102 117 121 121 120 109 114 115 122 142 145 144 147 152 155 153 151 147 139 138 136 138 139 136 136 132 130 123 116 113 110 110 112 118 122 136 169 144 135 146 151 149 154 156 155 156 153 146 136 132 135 136 137 137 131 135 139 128 121 120 120 120 117 116 116 111 108 108 104 100 101 99 94 95 101 101 101 103 96 89 86 80
320 287 250 171 157 156 161 157 148 150 135 130 133 136 123 106 121 113 98 118 121 125 120 123 135 153 149 146 145 150 151 149 146 140 141 139 139 138 137 136 132 129 120 111 103 99 100 106 114 119 149 175 131 132 141 142 148 152 150 151 148 144 141 133 133 139 137 138 134 129 133 136 129 122 124 125 119 115 116 114 110 109 106 105 111 113 107 104 105 108 110 111 105 96 89 84 81
299 260 234 169 166 166 158 169 157 136 134 135 141 148 132 121 126 111 115 128 125 120 106 108 109 116 128 131 138 144 147 148 146 144 145 144 143 143 142 140 135 128 120 114 103 97 92 95 106 114 148 150 128 136 139 142 149 148 146 148 141 137 138 135 136 136 135 135 130 129 131 130 127 124 127 126 120 119 118 115 112 109 107 112 116 113 109 111 115 118 119 111 101 98 94 87 81
282 247 226 160 161 149 133 154 117 119 137 144 153 160 144 139 141 134 134 129 127 122 114 107 102 109 118 125 135 141 146 148 149 151 153 152 150 150 148 143 138 129 121 115 105 101 93 89 98 117 146 134 124 129 133 142 147 144 147 146 136 134 137 134 132 131 132 132 128 129 126 125 127 125 126 123 121 122 120 118 111 107 112 115 110 109 110 111 114 119 117 107 101 97 92 86 77
316 289 251 109 106 102 80 91 83 126 144 147 160 165 152 144 146 150 146 137 140 131 125 119 113 118 122 128 136 141 146 150 154 157 158 157 153 150 145 141 137 130 123 116 111 104 96 95 100 117 135 121 116 122 127 139 144 142 144 143 137 137 138 134 130 128 130 131 129 127 123 125 127 126 126 124 123 122 117 112 107 111 115 111 108 109 109 109 110 114 114 106 97 87 81 79 75
1 307 277 70 82 105 90 89 71 116 143 148 162 163 156 149 150 156 145 140 148 140 137 135 130 133 133 135 141 145 149 153 156 160 157 154 150 145 138 137 136 130 123 119 113 104 101 104 108 117 128 118 115 119 123 133 139 140 138 138 139 140 138 134 130 127 128 129 127 124 121 122 120 121 125 125 125 119 112 108 111 115 113 111 111 108 108 111 110 110 109 98 86 80 80 78 77
334 321 20 70 126 134 99 92 83 129 152 153 157 159 158 157 156 155 149 145 149 147 146 144 144 144 141 143 146 148 151 154 157 158 156 151 147 142 136 134 132 131 126 119 113 110 112 114 116 126 130 121 116 118 121 128 134 134 133 135 138 140 138 134 131 127 127 127 127 124 120 117 115 117 122 125 125 119 116 116 117 117 116 116 111 108 110 109 104 100 95 87 81 79 79 76 74
309 22 51 63 175 147 106 98 100 149 156 152 159 163 155 156 161 156 141 101 119 143 144 141 148 148 145 146 148 150 152 153 155 154 153 149 146 142 137 134 131 131 125 118 115 116 120 120 121 129 129 121 117 116 118 123 128 128 129 133 133 135 135 132 130 128 128 129 129 124 118 116 116 117 119 125 127 123 123 124 123 122 122 117 108 109 111 103 98 93 87 85 85 79 72 69 68
279 92 82 68 72 111 122 112 113 158 159 159 165 158 152 158 156 153 96 49 97 131 135 139 146 148 145 146 148 151 152 150 149 146 147 146 144 142 138 136 134 132 124 119 118 118 121 123 125 131 131 123 120 121 121 122 125 126 127 129 129 130 132 132 131 129 130 132 128 124 121 119 119 122 125 129 128 126 125 125 125 123 121 116 111 113 108 102 100 95 91 85 82 80 72 66 62
275 20 87 85 95 124 139 118 116 163 163 162 163 153 159 165 151 146 88 71 118 128 131 138 143 147 145 147 149 150 150 147 143 139 139 139 137 139 138 136 136 131 124 120 120 122 124 126 129 132 128 119 115 116 117 118 119 122 124 125 127 129 130 131 130 129 130 130 127 127 127 123 124 127 130 130 128 127 125 122 122 120 120 118 114 115 110 103 97 92 88 79 77 78 70 67 66
260 297 76 124 166 164 159 128 116 147 152 153 159 158 159 160 147 138 98 98 124 129 133 139 144 149 148 149 149 149 150 146 141 136 135 135 135 136 135 137 136 128 123 122 123 125 126 127 129 128 122 116 115 114 112 113 115 118 121 122 125 127 129 131 129 128 129 129 129 131 129 125 127 129 130 130 128 126 122 120 121 122 122 118 113 114 107 99 94 91 87 77 72 73 66 64 65
278 313 32 257 219 199 180 139 114 130 140 151 157 155 144 149 149 131 111 118 128 131 138 142 148 152 152 151 150 150 151 148 144 140 137 135 137 138 137 140 135 128 126 123 125 129 128 129 128 126 123 120 121 120 118 117 118 119 121 124 126 126 130 131 128 128 131 133 134 134 134 130 126 131 133 130 126 123 120 120 121 119 119 116 114 112 104 98 95 89 84 76 71 72 64 60 61
321 344 45 303 247 208 175 137 117 97 120 162 164 155 142 151 170 142 134 136 134 136 142 147 151 154 156 154 152 154 152 151 148 144 143 141 142 143 143 144 136 131 129 126 130 131 130 129 128 128 127 126 125 124 123 122 122 122 123 125 126 129 133 131 130 133 135 138 137 136 139 132 126 134 134 128 124 121 119 121 120 118 118 118 114 110 105 101 98 95 97 92 78 71 62 58 61
190 144 97 70 76 174 152 136 138 116 117 164 152 145 145 161 191 141 144 147 141 141 146 153 154 154 157 156 154 156 154 154 153 150 149 145 147 149 148 146 140 134 130 133 134 130 130 132 131 131 132 131 129 128 126 124 124 126 126 127 129 132 133 131 132 137 137 138 138 138 140 134 134 139 135 127 123 120 120 117 117 118 120 121 117 113 112 106 98 97 105 99 79 69 61 58 60
185 180 142 100 88 107 137 139 157 143 135 139 143 152 158 175 170 134 147 151 147 144 148 157 157 156 159 158 156 157 157 157 156 156 153 148 148 149 149 147 142 135 134 136 133 130 133 134 132 133 136 135 131 131 129 127 128 129 129 131 133 134 133 133 136 139 138 138 139 140 140 136 137 137 132 128 122 120 122 116 112 115 122 126 124 122 117 108 101 96 96 86 71 67 63 58 59
201 207 215 128 104 88 130 140 158 148 140 136 171 176 162 175 159 144 157 157 155 152 152 159 162 160 160 161 160 159 160 160 160 159 155 152 149 149 149 148 144 138 138 137 135 138 138 135 134 137 140 139 135 134 133 131 133 133 134 135 135 134 133 134 137 139 140 141 141 142 140 137 135 132 131 129 122 121 119 113 112 112 119 121 126 129 116 104 104 100 94 83 72 68 63 58 60
194 102 261 187 129 91 128 148 166 154 153 190 213 180 155 173 159 153 166 166 164 161 157 162 166 164 162 163 164 163 162 162 160 157 156 154 151 150 149 150 147 140 140 141 141 143 142 136 137 143 144 141 137 136 136 136 136 136 136 137 137 136 134 132 133 137 139 140 141 142 139 136 134 130 132 132 124 119 112 106 107 111 121 118 129 137 122 115 110 105 103 90 74 68 63 59 61
184 80 262 201 128 111 134 157 177 160 160 201 220 187 140 158 156 157 171 175 175 169 162 164 168 167 164 164 168 166 163 162 160 157 157 155 152 152 152 153 151 144 141 144 147 144 142 140 139 146 145 140 139 138 139 140 139 140 140 140 142 140 136 133 132 135 137 136 137 142 140 136 136 133 136 136 122 108 107 103 101 114 121 117 130 137 125 120 113 125 125 98 79 74 66 61 64
191 213 246 151 134 147 144 155 175 156 158 183 218 225 118 135 152 160 172 179 183 178 168 168 169 170 168 167 170 169 163 163 163 162 160 158 155 152 153 155 154 150 146 148 150 145 146 143 138 147 147 142 143 142 143 142 141 144 144 145 145 141 138 138 137 136 138 136 138 146 144 140 140 137 138 137 124 110 110 100 94 113 113 114 130 126 124 123 115 134 132 109 94 77 65 63 67
202 223 134 130 159 151 152 164 170 166 173 180 185 198 83 121 152 163 174 182 187 184 174 173 171 171 172 171 173 171 168 167 167 167 164 160 158 152 154 157 157 155 150 150 151 147 149 144 143 152 151 148 147 146 149 148 148 149 148 149 149 142 138 141 141 139 140 140 144 151 149 145 142 138 136 137 129 118 116 114 119 126 116 119 121 107 110 121 122 126 119 121 117 87 71 63 61
296 302 80 184 165 129 141 154 166 174 178 176 169 159 124 143 157 168 177 183 190 188 177 177 175 174 177 177 177 174 172 171 169 169 166 162 159 155 156 157 159 159 154 155 154 152 154 151 154 158 153 153 153 151 153 151 153 153 150 152 152 146 144 149 148 143 142 141 147 152 148 143 139 136 134 135 131 117 111 121 132 134 126 124 113 98 98 112 129 128 116 135 133 106 88 69 56
305 324 8 106 100 100 137 139 153 165 162 169 168 170 196 176 168 173 179 186 193 189 180 181 179 178 182 183 181 178 177 174 169 168 165 164 162 158 158 159 162 162 161 163 160 158 161 159 162 160 156 160 158 156 156 153 155 155 152 156 156 152 151 154 150 145 145 143 149 152 144 139 137 138 136 135 136 127 121 126 136 138 130 129 118 106 111 122 133 133 129 136 123 103 92 78 51
343 119 69 96 113 120 151 135 143 153 150 167 161 170 205 201 185 178 177 186 196 192 185 185 183 184 188 187 182 179 181 177 169 168 167 165 165 162 162 163 165 165 168 170 165 164 165 165 168 166 163 167 164 162 158 154 158 158 156 157 156 156 157 156 151 149 150 151 155 150 142 143 143 144 139 139 142 131 125 134 144 139 130 138 139 133 133 128 126 126 127 122 107 97 96 95 57
320 174 141 136 130 128 134 134 144 154 140 145 158 185 209 210 202 186 179 187 199 197 191 188 186 189 190 189 185 180 180 178 171 169 170 170 170 170 168 169 170 171 174 173 169 170 169 168 173 173 171 171 170 167 161 159 162 160 157 156 155 160 160 156 155 156 155 162 163 150 148 158 158 153 148 146 139 126 125 136 142 141 137 141 138 132 127 122 121 122 119 112 102 96 97 96 86
295 231 145 63 94 112 134 142 146 160 146 147 175 193 212 214 205 195 193 195 201 200 199 195 189 191 192 190 186 181 178 179 176 173 174 175 175 175 175 176 176 175 178 176 175 176 174 175 179 179 177 174 174 173 166 162 163 161 160 159 156 160 163 160 166 168 159 162 172 164 165 171 164 159 157 148 133 136 147 138 131 140 143 138 133 132 127 121 123 119 114 116 110 102 104 89 75
265 288 89 142 178 148 150 159 150 156 157 155 177 190 212 213 200 202 209 207 204 203 206 206 200 197 196 193 188 183 181 180 181 179 178 178 178 179 181 180 180 178 180 180 180 180 180 184 185 182 182 179 177 177 170 166 169 167 167 167 162 166 173 173 175 175 167 165 177 183 180 174 166 165 167 153 148 166 158 141 138 140 146 139 129 124 114 111 125 121 119 122 114 106 110 95 70
208 279 321 170 210 129 115 175 160 143 153 155 160 191 233 213 200 200 207 211 208 203 205 207 208 204 201 198 191 187 186 183 187 186 182 181 180 182 185 184 183 181 183 184 184 184 183 188 190 186 187 185 182 180 173 172 175 174 175 177 174 174 178 179 178 178 179 173 173 186 190 180 170 171 172 160 160 174 158 153 152 137 141 134 115 102 100 105 119 110 120 127 116 114 114 87 65
168 53 349 345 312 17 122 180 188 172 186 165 158 188 231 206 203 198 191 205 208 202 204 205 205 204 203 204 197 193 193 189 191 191 186 185 182 183 187 188 188 185 185 186 186 187 186 188 192 191 190 190 189 186 181 179 179 178 182 185 184 183 181 183 182 180 186 180 172 179 185 189 181 174 177 172 170 173 159 156 151 136 147 131 122 132 109 85 70 61 130 136 118 125 119 86 75
178 8 345 337 302 285 151 189 210 211 164 157 175 207 228 203 216 205 187 201 206 200 206 208 205 203 203 206 202 199 198 194 194 194 191 189 185 185 189 192 191 188 186 184 185 188 188 191 193 192 193 193 195 193 189 187 185 185 187 187 189 190 186 187 184 178 181 178 173 175 175 193 194 180 186 194 185 176 163 155 157 150 153 168 158 138 107 92 99 274 208 166 143 153 133 107 95
176 325 336 333 302 269 197 214 228 205 125 163 209 228 244 237 221 202 189 198 205 203 210 213 210 207 204 205 205 202 201 198 196 195 196 195 190 189 191 194 192 190 187 183 184 187 191 195 195 193 194 194 198 199 198 195 192 193 193 190 191 189 186 191 186 178 181 181 178 178 174 191 204 193 193 201 193 188 181 169 176 170 166 186 183 138 129 160 201 218 221 209 197 216 208 175 195
122 76 354 331 305 277 221 242 251 210 200 209 193 208 236 195 178 186 186 194 203 203 207 211 212 211 206 205 205 205 203 203 201 198 199 199 198 196 193 194 193 190 188 185 184 186 192 198 196 194 195 195 198 199 201 202 199 198 198 195 194 189 183 186 187 186 191 188 186 191 189 191 211 212 206 205 198 197 197 184 189 191 181 185 167 162 198 199 208 217 225 236 229 243 253 242 239
123 118 98 282 284 300 236 256 269 243 250 236 173 190 236 158 153 176 183 197 208 208 209 207 209 212 210 205 204 204 202 204 205 201 200 201 202 201 197 197 196 192 190 189 186 184 191 198 198 196 194 195 198 198 201 205 205 204 203 200 198 195 190 187 189 195 196 194 194 203 209 205 208 218 220 219 211 205 204 194 195 202 195 196 191 194 207 211 225 230 231 240 239 246 253 248 245
122 127 215 256 252 232 245 249 282 251 238 205 161 188 237 229 139 156 173 198 206 204 210 208 208 213 214 210 205 204 201 201 205 204 202 203 204 202 200 199 197 193 192 191 189 187 190 197 201 199 195 195 198 199 201 205 208 211 211 209 204 199 197 196 196 199 200 204 204 207 219 221 216 213 216 225 221 214 215 203 196 207 214 214 209 205 206 214 228 236 239 243 246 255 255 247 245
127 113 51 280 237 206 217 190 225 246 216 110 138 183 227 252 104 128 161 181 178 187 200 202 206 211 213 212 207 204 203 200 202 204 202 203 204 202 201 202 199 195 194 193 193 192 192 197 203 203 200 198 199 199 201 204 209 213 216 217 212 206 202 201 205 207 208 212 213 214 221 221 221 218 215 219 219 217 223 217 205 211 220 220 220 218 214 214 215 222 237 247 259 270 266 255 243
142 126 120 289 247 211 207 195 202 228 175 108 142 172 215 248 99 105 138 139 158 234 225 210 209 210 210 211 208 204 203 201 200 202 203 202 202 201 200 200 199 197 198 197 196 195 195 199 205 206 204 202 201 201 202 204 208 211 215 218 217 214 209 207 210 214 217 218 215 218 223 224 224 222 220 221 220 220 229 231 223 223 228 228 227 226 225 224 220 222 238 248 260 271 270 263 255
170 153 139 204 252 230 226 222 209 204 162 132 146 173 216 211 112 86 71 57 25 348 296 244 222 212 209 209 209 205 203 202 200 200 202 201 199 199 197 196 199 202 203 201 199 198 198 202 208 209 208 206 205 204 205 206 208 210 212 216 217 218 216 214 216 218 221 224 221 219 220 225 228 224 221 223 220 218 224 233 235 233 235 239 240 239 239 242 236 227 236 243 243 255 259 258 261
182 158 153 210 258 274 267 261 250 238 161 132 148 193 215 157 118 90 72 62 40 19 349 280 229 213 210 209 208 205 202 202 200 199 200 199 198 197 196 196 201 205 205 202 200 200 201 206 212 211 209 209 208 207 208 208 209 211 213 214 216 218 218 218 220 220 220 220 222 225 223 221 225 226 224 222 221 219 220 229 236 236 240 244 248 249 246 250 252 241 241 245 239 249 262 259 256
179 167 177 213 251 270 285 300 315 292 264 149 169 213 79 111 136 110 64 50 42 27 18 15 205 201 204 211 208 203 201 202 201 199 198 198 198 197 198 200 204 207 206 202 201 204 208 212 216 214 210 212 211 210 211 211 211 213 215 215 217 218 219 219 222 223 221 219 221 228 230 226 223 228 230 227 226 225 225 230 233 236 244 248 249 252 246 242 250 249 248 250 240 239 253 256 253
156 188 198 184 230 277 292 290 269 275 267 187 172 196 131 132 160 129 37 30 42 26 22 37 126 183 191 204 207 202 200 201 202 200 197 197 199 199 200 201 203 204 203 203 206 211 216 218 217 215 212 212 213 213 213 214 214 214 216 217 218 221 222 221 223 225 224 224 227 228 228 230 231 231 232 232 232 233 231 230 229 229 239 245 245 249 249 244 248 248 247 252 247 238 246 254 253
168 201 196 160 200 273 278 270 262 260 248 193 173 201 167 152 172 133 19 21 28 19 21 38 81 166 185 194 200 201 200 201 201 199 196 196 197 199 202 205 204 204 203 208 217 221 221 220 217 215 214 213 213 214 214 216 217 217 218 219 219 221 223 222 222 225 224 225 229 230 227 228 232 232 231 229 228 233 235 233 231 228 233 241 241 239 242 245 248 247 247 254 256 252 254 259 257
216 196 174 169 201 228 225 250 270 263 255 226 192 204 183 114 95 71 21 17 16 11 13 24 63 141 177 185 190 197 200 202 200 198 197 197 198 202 208 211 207 203 206 212 219 221 220 222 219 213 214 215 211 212 214 217 219 220 220 222 222 222 222 221 220 222 224 224 225 228 228 228 230 231 234 235 230 231 237 238 237 235 235 242 244 241 242 245 245 243 244 249 256 262 261 257 256
226 191 180 192 205 213 220 239 254 265 276 272 216 193 140 45 45 44 25 18 12 7 6 13 46 104 165 173 180 186 191 201 201 201 201 197 200 206 213 219 212 206 212 214 213 216 217 219 219 213 211 214 212 210 213 217 219 220 221 223 225 226 224 223 222 221 222 224 224 225 226 228 229 228 233 240 238 232 233 236 238 236 235 238 241 238 238 244 246 241 238 236 239 252 259 256 254
208 198 185 192 183 178 218 230 230 238 251 262 243 203 104 55 36 30 19 11 12 12 2 8 45 73 129 151 171 178 186 202 203 203 205 203 208 210 211 218 215 210 219 219 213 219 218 214 218 218 210 208 211 211 213 218 220 220 222 224 225 229 230 226 224 224 223 223 224 226 226 226 228 228 227 232 235 234 233 235 235 235 234 234 236 237 233 236 245 247 244 239 238 247 254 255 253
213 215 197 198 194 188 209 223 227 230 230 251 258 223 105 66 26 20 17 9 21 24 3 6 48 63 85 116 149 172 186 207 212 208 208 209 215 215 209 211 212 214 222 224 221 227 228 222 224 226 217 212 211 210 213 219 222 223 224 226 226 228 231 230 226 226 225 225 225 226 227 226 226 228 227 227 230 232 234 235 235 236 237 235 239 244 240 235 242 248 249 245 244 251 255 252 252